Location: Marcé
(47.5801°N, 0.3280°W)
Time: 16:00:47
(UTC+01:00)

Vanguard 3 - Pass Details

Date: 12 December 2021
Orbit: 508 x 3260 km, 33.3° (Epoch: 20 January)

Event Time Altitude Azimuth Distance (km) Brightness Sun altitude
Rises 01:49:49 0° 221° (SW) 5,844 - -63.2°
Reaches altitude 10° 01:53:37 10° 213° (SSW) 5,169 - -62.8°
Maximum altitude 02:08:02 39° 152° (SSE) 4,102 - -61.5°
Exits shadow 02:15:15 31° 118° (ESE) 4,659 10.8 -60.7°
Drops below altitude 10° 02:25:10 10° 94° (E) 6,124 11.8 -59.6°
Sets 02:30:09 0° 88° (E) 6,994 12.2 -59.0°
